Time,TemperatureF,DewpointF,PressureIn,WindDirection,WindDirectionDegrees,WindSpeedMPH,WindSpeedGustMPH,Humidity,HourlyPrecipIn,Conditions,Clouds,dailyrainin,SoftwareType,DateUTC
2013-06-03 00:07:00,52.8,49.3,30.12,NNE,30,2.0,6.0,88,0.00,,,0.00,Wunderground v.1.15,2013-06-03 07:07:00,
2013-06-03 00:16:00,52.8,49.3,30.12,NNE,17,1.0,3.0,88,0.00,,,0.00,Wunderground v.1.15,2013-06-03 07:16:00,
2013-06-03 00:27:00,52.6,49.1,30.12,North,355,1.0,3.0,88,0.00,,,0.00,Wunderground v.1.15,2013-06-03 07:27:00,
2013-06-03 00:37:00,52.4,48.9,30.12,North,360,2.0,6.0,88,0.00,,,0.00,Wunderground v.1.15,2013-06-03 07:37:00,
2013-06-03 00:46:00,52.4,48.9,30.12,North,9,3.0,5.0,88,0.00,,,0.00,Wunderground v.1.15,2013-06-03 07:46:00,
2013-06-03 00:57:00,52.5,49.4,30.12,NNW,336,4.0,11.0,89,0.00,,,0.00,Wunderground v.1.15,2013-06-03 07:57:00,
2013-06-03 01:07:00,52.7,49.5,30.12,North,355,5.0,11.0,89,0.00,,,0.00,Wunderground v.1.15,2013-06-03 08:07:00,
2013-06-03 01:16:00,52.6,49.1,30.12,North,5,5.0,11.0,88,0.00,,,0.00,Wunderground v.1.15,2013-06-03 08:16:00,
2013-06-03 01:22:00,52.6,49.1,30.12,North,5,5.0,10.0,88,0.00,,,0.00,Wunderground v.1.15,2013-06-03 08:22:00,
2013-06-03 01:31:00,52.5,49.0,30.12,NNW,346,3.0,6.0,88,0.00,,,0.00,Wunderground v.1.15,2013-06-03 08:31:00,
2013-06-03 01:42:00,52.3,48.9,30.12,NNE,28,3.0,3.0,88,0.00,,,0.00,Wunderground v.1.15,2013-06-03 08:42:00,
2013-06-03 01:52:00,52.1,48.7,30.12,NNE,29,2.0,2.0,88,0.00,,,0.00,Wunderground v.1.15,2013-06-03 08:52:00,
2013-06-03 02:01:00,52.1,48.7,30.12,NE,54,1.0,10.0,88,0.00,,,0.00,Wunderground v.1.15,2013-06-03 09:01:00,
2013-06-03 02:07:00,52.1,48.7,30.11,NNW,338,1.0,10.0,88,0.00,,,0.00,Wunderground v.1.15,2013-06-03 09:07:00,
2013-06-03 02:17:00,52.1,48.7,30.11,NE,55,2.0,6.0,88,0.00,,,0.00,Wunderground v.1.15,2013-06-03 09:17:00,
2013-06-03 02:22:00,52.1,48.7,30.11,NE,45,2.0,5.0,88,0.00,,,0.00,Wunderground v.1.15,2013-06-03 09:22:00,
2013-06-03 02:32:00,52.1,48.7,30.11,NNE,26,2.0,6.0,88,0.00,,,0.00,Wunderground v.1.15,2013-06-03 09:32:00,
2013-06-03 02:42:00,52.1,48.7,30.11,NNE,29,3.0,3.0,88,0.00,,,0.00,Wunderground v.1.15,2013-06-03 09:42:00,
2013-06-03 02:51:00,52.1,48.7,30.11,NNE,25,2.0,7.0,88,0.00,,,0.00,Wunderground v.1.15,2013-06-03 09:51:00,
2013-06-03 03:02:00,52.2,48.8,30.12,North,11,4.0,4.0,88,0.00,,,0.00,Wunderground v.1.15,2013-06-03 10:02:00,
2013-06-03 03:11:00,52.2,48.8,30.11,North,5,6.0,6.0,88,0.00,,,0.00,Wunderground v.1.15,2013-06-03 10:11:00,
2013-06-03 03:22:00,52.1,48.7,30.11,North,355,4.0,10.0,88,0.00,,,0.00,Wunderground v.1.15,2013-06-03 10:22:00,
2013-06-03 03:32:00,51.8,48.4,30.12,North,360,4.0,8.0,88,0.00,,,0.00,Wunderground v.1.15,2013-06-03 10:32:00,
2013-06-03 03:41:00,51.8,48.4,30.12,North,11,4.0,4.0,88,0.00,,,0.00,Wunderground v.1.15,2013-06-03 10:41:00,
2013-06-03 03:46:00,51.8,48.4,30.12,NNE,26,3.0,8.0,88,0.00,,,0.00,Wunderground v.1.15,2013-06-03 10:46:00,
2013-06-03 03:52:00,51.7,48.3,30.12,NNE,32,4.0,7.0,88,0.00,,,0.00,Wunderground v.1.15,2013-06-03 10:52:00,
2013-06-03 04:01:00,51.6,48.2,30.11,NE,37,2.0,7.0,88,0.00,,,0.00,Wunderground v.1.15,2013-06-03 11:01:00,
2013-06-03 04:12:00,51.5,48.1,30.11,NE,40,3.0,8.0,88,0.00,,,0.00,Wunderground v.1.15,2013-06-03 11:12:00,
2013-06-03 04:21:00,51.3,47.9,30.11,NE,40,2.0,5.0,88,0.00,,,0.00,Wunderground v.1.15,2013-06-03 11:21:00,
2013-06-03 04:32:00,51.3,48.2,30.11,NE,38,3.0,5.0,89,0.00,,,0.00,Wunderground v.1.15,2013-06-03 11:32:00,
2013-06-03 04:42:00,51.2,48.1,30.11,NE,38,1.0,1.0,89,0.00,,,0.00,Wunderground v.1.15,2013-06-03 11:42:00,
2013-06-03 04:51:00,51.1,48.0,30.11,NE,38,1.0,3.0,89,0.00,,,0.00,Wunderground v.1.15,2013-06-03 11:51:00,
2013-06-03 04:57:00,51.1,48.0,30.11,NE,46,2.0,4.0,89,0.00,,,0.00,Wunderground v.1.15,2013-06-03 11:57:00,
2013-06-03 05:06:00,51.1,48.0,30.11,NNE,32,2.0,3.0,89,0.00,,,0.00,Wunderground v.1.15,2013-06-03 12:06:00,
2013-06-03 05:12:00,51.1,48.0,30.11,NNE,32,2.0,2.0,89,0.00,,,0.00,Wunderground v.1.15,2013-06-03 12:12:00,
2013-06-03 05:22:00,51.0,47.9,30.11,NE,39,2.0,4.0,89,0.00,,,0.00,Wunderground v.1.15,2013-06-03 12:22:00,
2013-06-03 05:31:00,50.9,47.8,30.11,NE,36,2.0,2.0,89,0.00,,,0.00,Wunderground v.1.15,2013-06-03 12:31:00,
2013-06-03 05:41:00,50.8,47.7,30.12,NE,36,1.0,1.0,89,0.00,,,0.00,Wunderground v.1.15,2013-06-03 12:41:00,
2013-06-03 05:47:00,50.8,47.7,30.12,NE,37,1.0,4.0,89,0.00,,,0.00,Wunderground v.1.15,2013-06-03 12:47:00,
2013-06-03 05:57:00,50.9,47.8,30.12,NE,34,3.0,7.0,89,0.00,,,0.00,Wunderground v.1.15,2013-06-03 12:57:00,
2013-06-03 06:06:00,50.9,47.8,30.12,NE,38,4.0,4.0,89,0.00,,,0.00,Wunderground v.1.15,2013-06-03 13:06:00,
2013-06-03 06:16:00,50.9,47.8,30.12,NE,39,3.0,6.0,89,0.00,,,0.00,Wunderground v.1.15,2013-06-03 13:16:00,
2013-06-03 06:21:00,50.9,47.8,30.12,NE,46,2.0,2.0,89,0.00,,,0.00,Wunderground v.1.15,2013-06-03 13:21:00,
2013-06-03 06:27:00,50.9,47.8,30.12,NE,46,2.0,4.0,89,0.00,,,0.00,Wunderground v.1.15,2013-06-03 13:27:00,
2013-06-03 06:36:00,51.0,47.9,30.12,NE,52,1.0,3.0,89,0.00,,,0.00,Wunderground v.1.15,2013-06-03 13:36:00,
2013-06-03 06:47:00,51.3,48.5,30.12,NE,53,1.0,5.0,90,0.00,,,0.00,Wunderground v.1.15,2013-06-03 13:47:00,
2013-06-03 06:56:00,51.7,48.6,30.12,NE,45,3.0,3.0,89,0.00,,,0.00,Wunderground v.1.15,2013-06-03 13:56:00,
2013-06-03 07:02:00,51.8,48.4,30.12,NNE,30,3.0,6.0,88,0.00,,,0.00,Wunderground v.1.15,2013-06-03 14:02:00,
2013-06-03 07:11:00,52.2,48.8,30.12,NNE,24,2.0,7.0,88,0.00,,,0.00,Wunderground v.1.15,2013-06-03 14:11:00,
2013-06-03 07:17:00,52.4,48.9,30.13,NNE,16,1.0,7.0,88,0.00,,,0.00,Wunderground v.1.15,2013-06-03 14:17:00,
2013-06-03 07:26:00,53.0,49.2,30.13,NE,39,3.0,7.0,87,0.00,,,0.00,Wunderground v.1.15,2013-06-03 14:26:00,
2013-06-03 07:32:00,53.0,48.9,30.13,NNE,26,3.0,3.0,86,0.00,,,0.00,Wunderground v.1.15,2013-06-03 14:32:00,
2013-06-03 07:37:00,53.2,49.1,30.13,NNE,25,3.0,6.0,86,0.00,,,0.00,Wunderground v.1.15,2013-06-03 14:37:00,
2013-06-03 07:42:00,53.3,48.9,30.13,NNE,24,3.0,9.0,85,0.00,,,0.00,Wunderground v.1.15,2013-06-03 14:42:00,
2013-06-03 07:47:00,53.5,49.4,30.13,NNE,26,3.0,9.0,86,0.00,,,0.00,Wunderground v.1.15,2013-06-03 14:47:00,
2013-06-03 07:57:00,53.8,49.7,30.13,NNE,28,3.0,6.0,86,0.00,,,0.00,Wunderground v.1.15,2013-06-03 14:57:00,
2013-06-03 08:07:00,54.4,49.7,30.13,North,5,3.0,8.0,84,0.00,,,0.00,Wunderground v.1.15,2013-06-03 15:07:00,
2013-06-03 08:16:00,54.4,49.3,30.13,NNE,19,5.0,9.0,83,0.00,,,0.00,Wunderground v.1.15,2013-06-03 15:16:00,
2013-06-03 08:27:00,54.8,49.7,30.14,NNE,28,4.0,7.0,83,0.00,,,0.00,Wunderground v.1.15,2013-06-03 15:27:00,
2013-06-03 08:36:00,54.9,49.5,30.14,NW,317,6.0,13.0,82,0.00,,,0.00,Wunderground v.1.15,2013-06-03 15:36:00,
2013-06-03 08:47:00,54.4,49.3,30.14,NNW,334,6.0,12.0,83,0.00,,,0.00,Wunderground v.1.15,2013-06-03 15:47:00,
2013-06-03 08:57:00,54.4,49.3,30.14,North,5,6.0,13.0,83,0.00,,,0.00,Wunderground v.1.15,2013-06-03 15:57:00,
2013-06-03 09:02:00,54.6,49.5,30.14,North,5,5.0,5.0,83,0.00,,,0.00,Wunderground v.1.15,2013-06-03 16:02:00,
2013-06-03 09:11:00,55.7,50.0,30.13,WNW,286,4.0,9.0,81,0.00,,,0.00,Wunderground v.1.15,2013-06-03 16:11:00,
2013-06-03 09:17:00,56.1,50.7,30.14,NNW,342,5.0,10.0,82,0.00,,,0.00,Wunderground v.1.15,2013-06-03 16:17:00,
2013-06-03 09:27:00,56.4,50.3,30.14,NNW,327,4.0,9.0,80,0.00,,,0.00,Wunderground v.1.15,2013-06-03 16:27:00,
2013-06-03 09:36:00,56.4,50.6,30.14,NNW,343,4.0,13.0,81,0.00,,,0.00,Wunderground v.1.15,2013-06-03 16:36:00,
2013-06-03 09:42:00,56.7,50.6,30.14,NE,36,4.0,14.0,80,0.00,,,0.00,Wunderground v.1.15,2013-06-03 16:42:00,
2013-06-03 09:51:00,56.6,50.5,30.14,North,10,5.0,5.0,80,0.00,,,0.00,Wunderground v.1.15,2013-06-03 16:51:00,
2013-06-03 09:57:00,56.6,50.2,30.14,North,5,5.0,7.0,79,0.00,,,0.00,Wunderground v.1.15,2013-06-03 16:57:00,
2013-06-03 10:06:00,56.8,50.4,30.14,North,360,5.0,5.0,79,0.00,,,0.00,Wunderground v.1.15,2013-06-03 17:06:00,
2013-06-03 10:17:00,56.6,50.5,30.14,NNE,33,7.0,17.0,80,0.00,,,0.00,Wunderground v.1.15,2013-06-03 17:17:00,
2013-06-03 10:27:00,57.0,50.5,30.14,WNW,301,6.0,12.0,79,0.00,,,0.00,Wunderground v.1.15,2013-06-03 17:27:00,
2013-06-03 10:37:00,57.0,50.5,30.15,NNE,26,5.0,13.0,79,0.00,,,0.00,Wunderground v.1.15,2013-06-03 17:37:00,
2013-06-03 10:46:00,57.3,50.5,30.14,NW,320,5.0,18.0,78,0.00,,,0.00,Wunderground v.1.15,2013-06-03 17:46:00,
2013-06-03 10:57:00,57.5,50.7,30.14,NNE,21,5.0,14.0,78,0.00,,,0.00,Wunderground v.1.15,2013-06-03 17:57:00,
2013-06-03 11:06:00,57.5,50.3,30.14,NNE,26,6.0,19.0,77,0.00,,,0.00,Wunderground v.1.15,2013-06-03 18:06:00,
2013-06-03 11:12:00,57.7,50.5,30.14,WNW,302,5.0,13.0,77,0.00,,,0.00,Wunderground v.1.15,2013-06-03 18:12:00,
2013-06-03 11:22:00,57.2,50.1,30.14,NNE,12,7.0,7.0,77,0.00,,,0.00,Wunderground v.1.15,2013-06-03 18:22:00,
2013-06-03 11:31:00,57.7,50.2,30.14,NE,42,6.0,6.0,76,0.00,,,0.00,Wunderground v.1.15,2013-06-03 18:31:00,
2013-06-03 11:42:00,57.8,49.9,30.14,North,355,7.0,7.0,75,0.00,,,0.00,Wunderground v.1.15,2013-06-03 18:42:00,
2013-06-03 11:51:00,58.1,50.2,30.14,NNE,15,7.0,15.0,75,0.00,,,0.00,Wunderground v.1.15,2013-06-03 18:51:00,
2013-06-03 11:57:00,58.2,50.7,30.13,NE,54,7.0,19.0,76,0.00,,,0.00,Wunderground v.1.15,2013-06-03 18:57:00,
2013-06-03 12:06:00,58.2,50.3,30.13,NNW,342,6.0,17.0,75,0.00,,,0.00,Wunderground v.1.15,2013-06-03 19:06:00,
2013-06-03 12:12:00,58.4,50.9,30.13,North,355,6.0,14.0,76,0.00,,,0.00,Wunderground v.1.15,2013-06-03 19:12:00,
2013-06-03 12:21:00,58.6,50.7,30.13,NNE,14,7.0,7.0,75,0.00,,,0.00,Wunderground v.1.15,2013-06-03 19:21:00,
2013-06-03 12:32:00,58.5,50.6,30.13,NNW,340,7.0,16.0,75,0.00,,,0.00,Wunderground v.1.15,2013-06-03 19:32:00,
2013-06-03 12:42:00,58.5,50.6,30.13,NNW,342,7.0,7.0,75,0.00,,,0.00,Wunderground v.1.15,2013-06-03 19:42:00,
2013-06-03 12:52:00,58.6,51.1,30.12,NNW,338,6.0,6.0,76,0.00,,,0.00,Wunderground v.1.15,2013-06-03 19:52:00,
2013-06-03 12:57:00,58.8,51.2,30.13,North,350,6.0,11.0,76,0.00,,,0.00,Wunderground v.1.15,2013-06-03 19:57:00,
2013-06-03 13:06:00,58.8,51.2,30.13,NNW,348,6.0,9.0,76,0.00,,,0.00,Wunderground v.1.15,2013-06-03 20:06:00,
2013-06-03 13:11:00,58.6,51.1,30.13,North,355,7.0,14.0,76,0.00,,,0.00,Wunderground v.1.15,2013-06-03 20:11:00,
2013-06-03 13:22:00,58.9,51.7,30.13,NNE,24,5.0,15.0,77,0.00,,,0.00,Wunderground v.1.15,2013-06-03 20:22:00,
2013-06-03 13:27:00,58.7,51.9,30.13,NNE,16,6.0,17.0,78,0.00,,,0.00,Wunderground v.1.15,2013-06-03 20:27:00,
2013-06-03 13:36:00,58.7,52.2,30.12,NW,325,5.0,16.0,79,0.00,,,0.00,Wunderground v.1.15,2013-06-03 20:36:00,
2013-06-03 13:42:00,58.7,52.2,30.12,NW,318,6.0,6.0,79,0.00,,,0.00,Wunderground v.1.15,2013-06-03 20:42:00,
2013-06-03 13:47:00,58.8,52.3,30.12,WNW,302,5.0,14.0,79,0.00,,,0.00,Wunderground v.1.15,2013-06-03 20:47:00,
2013-06-03 13:52:00,58.8,52.6,30.12,North,5,5.0,16.0,80,0.00,,,0.00,Wunderground v.1.15,2013-06-03 20:52:00,
2013-06-03 14:02:00,59.0,52.8,30.12,NNE,30,6.0,6.0,80,0.00,,,0.00,Wunderground v.1.15,2013-06-03 21:02:00,
2013-06-03 14:11:00,58.9,52.7,30.12,North,5,7.0,13.0,80,0.00,,,0.00,Wunderground v.1.15,2013-06-03 21:11:00,
2013-06-03 14:22:00,58.7,52.5,30.12,North,355,7.0,7.0,80,0.00,,,0.00,Wunderground v.1.15,2013-06-03 21:22:00,
2013-06-03 14:31:00,58.6,52.4,30.12,NNE,16,8.0,16.0,80,0.00,,,0.00,Wunderground v.1.15,2013-06-03 21:31:00,
2013-06-03 14:42:00,58.1,52.0,30.12,NNE,25,9.0,9.0,80,0.00,,,0.00,Wunderground v.1.15,2013-06-03 21:42:00,
2013-06-03 14:47:00,58.4,52.6,30.12,NNW,332,8.0,22.0,81,0.00,,,0.00,Wunderground v.1.15,2013-06-03 21:47:00,
2013-06-03 14:57:00,58.7,52.5,30.11,NW,324,7.0,14.0,80,0.00,,,0.00,Wunderground v.1.15,2013-06-03 21:57:00,
2013-06-03 15:06:00,58.6,52.4,30.11,NNW,342,7.0,18.0,80,0.00,,,0.00,Wunderground v.1.15,2013-06-03 22:06:00,
2013-06-03 15:12:00,58.1,52.0,30.11,NNW,348,8.0,18.0,80,0.00,,,0.00,Wunderground v.1.15,2013-06-03 22:12:00,
2013-06-03 15:22:00,58.2,52.4,30.12,North,360,7.0,7.0,81,0.00,,,0.00,Wunderground v.1.15,2013-06-03 22:22:00,
2013-06-03 15:31:00,58.0,52.5,30.11,NNW,331,9.0,21.0,82,0.00,,,0.00,Wunderground v.1.15,2013-06-03 22:31:00,
2013-06-03 15:36:00,57.6,51.8,30.11,NW,304,9.0,22.0,81,0.00,,,0.00,Wunderground v.1.15,2013-06-03 22:36:00,
2013-06-03 15:46:00,57.2,51.8,30.11,North,5,12.0,25.0,82,0.00,,,0.00,Wunderground v.1.15,2013-06-03 22:46:00,
2013-06-03 15:52:00,57.3,51.9,30.11,North,10,11.0,24.0,82,0.00,,,0.00,Wunderground v.1.15,2013-06-03 22:52:00,
2013-06-03 16:01:00,57.1,52.0,30.10,NNE,15,13.0,29.0,83,0.00,,,0.00,Wunderground v.1.15,2013-06-03 23:01:00,
2013-06-03 16:12:00,57.0,51.9,30.11,North,5,11.0,21.0,83,0.00,,,0.00,Wunderground v.1.15,2013-06-03 23:12:00,
2013-06-03 16:22:00,56.9,51.5,30.10,NNW,333,11.0,25.0,82,0.00,,,0.00,Wunderground v.1.15,2013-06-03 23:22:00,
2013-06-03 16:27:00,56.8,51.7,30.11,North,5,12.0,25.0,83,0.00,,,0.00,Wunderground v.1.15,2013-06-03 23:27:00,
2013-06-03 16:36:00,56.7,51.9,30.10,North,5,13.0,27.0,84,0.00,,,0.00,Wunderground v.1.15,2013-06-03 23:36:00,
2013-06-03 16:46:00,56.8,51.7,30.10,NNW,340,12.0,21.0,83,0.00,,,0.00,Wunderground v.1.15,2013-06-03 23:46:00,
2013-06-03 16:52:00,56.7,51.6,30.10,North,351,11.0,25.0,83,0.00,,,0.00,Wunderground v.1.15,2013-06-03 23:52:00,
2013-06-03 17:01:00,56.7,51.6,30.10,NE,42,12.0,12.0,83,0.00,,,0.00,Wunderground v.1.15,2013-06-04 00:01:00,
2013-06-03 17:07:00,56.7,51.6,30.10,NNE,13,13.0,22.0,83,0.00,,,0.00,Wunderground v.1.15,2013-06-04 00:07:00,
2013-06-03 17:12:00,56.5,51.4,30.10,North,355,13.0,13.0,83,0.00,,,0.00,Wunderground v.1.15,2013-06-04 00:12:00,
2013-06-03 17:16:00,56.4,51.3,30.10,NNE,14,14.0,14.0,83,0.00,,,0.00,Wunderground v.1.15,2013-06-04 00:16:00,
2013-06-03 17:21:00,56.4,51.0,30.10,North,355,13.0,22.0,82,0.00,,,0.00,Wunderground v.1.15,2013-06-04 00:21:00,
2013-06-03 17:31:00,56.2,50.8,30.10,North,350,13.0,23.0,82,0.00,,,0.00,Wunderground v.1.15,2013-06-04 00:31:00,
2013-06-03 17:41:00,56.0,50.9,30.10,North,11,14.0,24.0,83,0.00,,,0.00,Wunderground v.1.15,2013-06-04 00:41:00,
2013-06-03 17:47:00,56.0,50.9,30.10,North,349,14.0,24.0,83,0.00,,,0.00,Wunderground v.1.15,2013-06-04 00:47:00,
2013-06-03 17:56:00,56.2,51.1,30.09,North,355,11.0,24.0,83,0.00,,,0.00,Wunderground v.1.15,2013-06-04 00:56:00,
2013-06-03 18:02:00,56.2,50.8,30.09,NNW,331,11.0,11.0,82,0.00,,,0.00,Wunderground v.1.15,2013-06-04 01:02:00,
2013-06-03 18:11:00,56.2,50.8,30.09,NNE,28,12.0,12.0,82,0.00,,,0.00,Wunderground v.1.15,2013-06-04 01:11:00,
2013-06-03 18:21:00,56.2,50.8,30.09,NW,325,11.0,11.0,82,0.00,,,0.00,Wunderground v.1.15,2013-06-04 01:21:00,
2013-06-03 18:27:00,56.3,50.9,30.09,North,5,10.0,12.0,82,0.00,,,0.00,Wunderground v.1.15,2013-06-04 01:27:00,
2013-06-03 18:36:00,55.7,50.6,30.09,NW,325,11.0,21.0,83,0.00,,,0.00,Wunderground v.1.15,2013-06-04 01:36:00,
2013-06-03 18:47:00,55.5,50.4,30.09,North,360,11.0,22.0,83,0.00,,,0.00,Wunderground v.1.15,2013-06-04 01:47:00,
2013-06-03 18:57:00,55.2,50.4,30.09,North,5,12.0,18.0,84,0.00,,,0.00,Wunderground v.1.15,2013-06-04 01:57:00,
2013-06-03 19:06:00,55.2,50.4,30.09,North,360,11.0,19.0,84,0.00,,,0.00,Wunderground v.1.15,2013-06-04 02:06:00,
2013-06-03 19:12:00,55.0,50.3,30.09,NNE,24,12.0,12.0,84,0.00,,,0.00,Wunderground v.1.15,2013-06-04 02:12:00,
2013-06-03 19:21:00,54.9,50.2,30.09,NNE,15,11.0,22.0,84,0.00,,,0.00,Wunderground v.1.15,2013-06-04 02:21:00,
2013-06-03 19:32:00,54.7,50.3,30.09,NNW,346,13.0,21.0,85,0.00,,,0.00,Wunderground v.1.15,2013-06-04 02:32:00,
2013-06-03 19:41:00,54.5,50.1,30.09,North,355,12.0,12.0,85,0.00,,,0.00,Wunderground v.1.15,2013-06-04 02:41:00,
2013-06-03 19:52:00,54.3,50.2,30.09,NW,313,11.0,11.0,86,0.00,,,0.00,Wunderground v.1.15,2013-06-04 02:52:00,
2013-06-03 20:01:00,54.1,50.0,30.09,North,5,12.0,23.0,86,0.00,,,0.00,Wunderground v.1.15,2013-06-04 03:01:00,
2013-06-03 20:11:00,54.1,50.3,30.09,NNE,26,10.0,10.0,87,0.00,,,0.00,Wunderground v.1.15,2013-06-04 03:11:00,
2013-06-03 20:16:00,54.1,50.0,30.09,North,360,9.0,18.0,86,0.00,,,0.00,Wunderground v.1.15,2013-06-04 03:16:00,
2013-06-03 20:22:00,54.1,50.0,30.09,North,9,7.0,14.0,86,0.00,,,0.00,Wunderground v.1.15,2013-06-04 03:22:00,
2013-06-03 20:32:00,54.1,50.0,30.09,NE,40,4.0,4.0,86,0.00,,,0.00,Wunderground v.1.15,2013-06-04 03:32:00,
2013-06-03 20:41:00,53.9,49.8,30.09,NE,45,5.0,5.0,86,0.00,,,0.00,Wunderground v.1.15,2013-06-04 03:41:00,
2013-06-03 20:47:00,53.7,49.6,30.09,North,5,5.0,12.0,86,0.00,,,0.00,Wunderground v.1.15,2013-06-04 03:47:00,
2013-06-03 20:56:00,53.5,49.4,30.09,North,350,5.0,9.0,86,0.00,,,0.00,Wunderground v.1.15,2013-06-04 03:56:00,
2013-06-03 21:01:00,53.4,49.6,30.09,North,360,4.0,9.0,87,0.00,,,0.00,Wunderground v.1.15,2013-06-04 04:01:00,
2013-06-03 21:06:00,53.3,49.5,30.09,NE,34,4.0,11.0,87,0.00,,,0.00,Wunderground v.1.15,2013-06-04 04:06:00,
2013-06-03 21:17:00,53.2,49.4,30.09,North,355,2.0,7.0,87,0.00,,,0.00,Wunderground v.1.15,2013-06-04 04:17:00,
2013-06-03 21:26:00,53.1,49.3,30.09,NNE,15,1.0,5.0,87,0.00,,,0.00,Wunderground v.1.15,2013-06-04 04:26:00,
2013-06-03 21:31:00,53.0,49.2,30.09,NNW,337,1.0,6.0,87,0.00,,,0.00,Wunderground v.1.15,2013-06-04 04:31:00,
2013-06-03 21:36:00,53.0,49.2,30.09,NNE,13,2.0,10.0,87,0.00,,,0.00,Wunderground v.1.15,2013-06-04 04:36:00,
2013-06-03 21:42:00,52.9,49.1,30.10,NNE,13,4.0,6.0,87,0.00,,,0.00,Wunderground v.1.15,2013-06-04 04:42:00,
2013-06-03 21:46:00,52.7,49.2,30.10,North,5,6.0,7.0,88,0.00,,,0.00,Wunderground v.1.15,2013-06-04 04:46:00,
2013-06-03 21:51:00,52.6,49.1,30.09,NNE,16,6.0,6.0,88,0.00,,,0.00,Wunderground v.1.15,2013-06-04 04:51:00,
2013-06-03 22:02:00,52.5,49.4,30.10,North,9,4.0,8.0,89,0.00,,,0.00,Wunderground v.1.15,2013-06-04 05:02:00,
2013-06-03 22:11:00,52.4,49.3,30.10,North,9,5.0,5.0,89,0.00,,,0.00,Wunderground v.1.15,2013-06-04 05:11:00,
2013-06-03 22:27:00,52.4,49.3,30.10,NNE,31,3.0,10.0,89,0.00,,,0.00,Wunderground v.1.15,2013-06-04 05:27:00,
2013-06-03 22:36:00,52.4,49.3,30.10,ENE,69,3.0,8.0,89,0.00,,,0.00,Wunderground v.1.15,2013-06-04 05:36:00,
2013-06-03 22:41:00,52.4,49.3,30.10,East,90,2.0,2.0,89,0.00,,,0.00,Wunderground v.1.15,2013-06-04 05:41:00,
2013-06-03 22:52:00,52.3,49.2,30.10,North,355,2.0,6.0,89,0.00,,,0.00,Wunderground v.1.15,2013-06-04 05:52:00,
2013-06-03 23:01:00,52.3,49.2,30.10,NE,49,3.0,3.0,89,0.00,,,0.00,Wunderground v.1.15,2013-06-04 06:01:00,
2013-06-03 23:12:00,52.2,49.1,30.10,North,355,3.0,9.0,89,0.00,,,0.00,Wunderground v.1.15,2013-06-04 06:12:00,
2013-06-03 23:17:00,52.2,49.1,30.10,North,11,3.0,9.0,89,0.00,,,0.00,Wunderground v.1.15,2013-06-04 06:17:00,
2013-06-03 23:26:00,52.2,49.1,30.10,NNW,329,3.0,9.0,89,0.00,,,0.00,Wunderground v.1.15,2013-06-04 06:26:00,
2013-06-03 23:32:00,52.2,49.1,30.10,NNE,20,3.0,10.0,89,0.00,,,0.00,Wunderground v.1.15,2013-06-04 06:32:00,
2013-06-03 23:42:00,52.1,49.0,30.10,North,349,4.0,8.0,89,0.00,,,0.00,Wunderground v.1.15,2013-06-04 06:42:00,
2013-06-03 23:51:00,52.1,48.7,30.09,NE,44,3.0,8.0,88,0.00,,,0.00,Wunderground v.1.15,2013-06-04 06:51:00,